Location: Kouchibouguac National Park
(46.7962°N, 64.9642°W)
Time: 14:24:42
(UTC-04:00)

ISS - Visible Passes

Search period start: 06 December 2021 00:00
Search period end: 16 December 2021 00:00
Orbit: 417 x 422 km, 51.6° (Epoch: 06 December)

Date Brightness Start Highest point End Pass type
(mag) Time Alt. Az. Time Alt. Az. Time Alt. Az.
06 Dec -3.4 17:40:04 10° WNW 17:43:26 66° SSW 17:46:48 10° SE visible
06 Dec -0.6 19:18:27 10° WSW 19:19:42 12° SW 19:20:29 11° SSW visible
07 Dec -1.0 18:30:05 10° W 18:32:30 18° SW 18:34:54 10° S visible
08 Dec -1.6 17:42:18 10° W 17:45:16 28° SW 17:48:12 10° SSE visible
10 Dec -0.2 17:45:37 10° WSW 17:46:50 11° SW 17:48:02 10° SSW visible
